Weather History for Edinburg, TX

Change the Weather History Date:

Thursday, July 25, 2013

  Actual Average (KMFE) Record (KMFE)
Temperature  
Mean Temperature 89 °F 87 °F  
Max Temperature 101 °F 98 °F 105 °F (2009)
Min Temperature 78 °F 77 °F 67 °F (1976)
Degree Days  
Heating Degree Days 0 0  
Month to date heating degree days 0  
Since 1 June heating degree days 0  
Since 1 July heating degree days 0  
Cooling Degree Days 24 22  
Month to date cooling degree days 540  
Year to date cooling degree days 2423  
Since 1 June cooling degree days 1168  
Growing Degree Days 39 (Base 50)    
Moisture  
Dew Point 71 °F    
Average Humidity 61    
Maximum Humidity 88    
Minimum Humidity 29    
Precipitation  
Precipitation 0.00 in 0.05 in 1.02 in (2001)
Month to date precipitation 1.71  
Year to date precipitation 11.07  
Sea Level Pressure  
Sea Level Pressure 29.97 in    
Wind  
Wind Speed 8 mph (SE)    
Max Wind Speed 23 mph    
Max Gust Speed 25 mph    
Visibility 8 miles    
Events      
T = Trace of Precipitation, MM = Missing Value Source: NWS Daily Summary

Daily Weather History Graph

Daily Weather History Graph

Search for Another Location

Airport:

Trip Planner

Search our weather history database for the weather conditions in past years. The results will help you decide how hot, cold, wet, or windy it might be!

Date:

Astronomy

Jul. 25, 2013 Rise Set
Actual Time 6:54 AM CDT 8:23 PM CDT
Civil Twilight 6:29 AM CDT 8:48 PM CDT
Nautical Twilight 5:58 AM CDT 9:18 PM CDT
Astronomical Twilight 5:27 AM CDT 9:50 PM CDT
Moon 10:33 PM CDT (7/25) 10:00 AM CDT (7/25)
Length of Visible Light 14h 19m
Length of Day
13h 29m
Waning Gibbous, 88% of the Moon is Illuminated
Jul 25
Waning Gibbous
Jul 29
Last Quarter
Aug 6
New
Aug 14
First Quarter
Aug 20
Full

Hourly Weather History & Observations

Time (CDT) Temp. Heat Index Dew Point Humidity Pressure Visibility Wind Dir Wind Speed Gust Speed Precip Events Conditions
12:15 AM 81.3 °F 86.1 °F 72.9 °F 75% 29.95 in 10.0 mi SE 6.9 mph - N/A   Clear
12:35 AM 80.6 °F 85.2 °F 73.0 °F 78% 29.96 in 10.0 mi SE 5.8 mph - N/A   Clear
12:55 AM 80.6 °F 85.4 °F 73.4 °F 79% 29.96 in 10.0 mi SE 5.8 mph - N/A   Clear
1:15 AM 80.2 °F 84.6 °F 73.2 °F 79% 29.96 in 10.0 mi SE 4.6 mph - N/A   Clear
1:35 AM 79.7 °F - 73.4 °F 81% 29.96 in 10.0 mi SE 4.6 mph - N/A   Clear
1:55 AM 79.7 °F - 73.4 °F 81% 29.96 in 10.0 mi SE 3.5 mph - N/A   Clear
2:15 AM 79.2 °F - 73.4 °F 82% 29.96 in 10.0 mi SE 3.5 mph - N/A   Clear
2:35 AM 78.8 °F - 73.2 °F 83% 29.95 in 10.0 mi ESE 3.5 mph - N/A   Clear
2:55 AM 78.3 °F - 73.2 °F 84% 29.95 in 7.0 mi SE 4.6 mph - N/A   Clear
3:15 AM 78.8 °F - 73.6 °F 84% 29.95 in 7.0 mi ESE 4.6 mph - N/A   Clear
3:35 AM 79.0 °F - 73.8 °F 84% 29.95 in 7.0 mi ESE 4.6 mph - N/A   Scattered Clouds
3:55 AM 79.2 °F - 74.3 °F 85% 29.95 in 7.0 mi ESE 5.8 mph - N/A   Scattered Clouds
4:15 AM 79.2 °F - 74.1 °F 84% 29.95 in 7.0 mi ESE 4.6 mph - N/A   Scattered Clouds
4:35 AM 78.8 °F - 73.9 °F 85% 29.95 in 7.0 mi ESE 4.6 mph - N/A   Scattered Clouds
4:55 AM 78.6 °F - 74.1 °F 86% 29.95 in 7.0 mi SE 5.8 mph - N/A   Clear
5:15 AM 78.8 °F - 74.3 °F 86% 29.95 in 7.0 mi SE 5.8 mph - N/A   Clear
5:35 AM 78.4 °F - 74.3 °F 87% 29.95 in 7.0 mi SE 4.6 mph - N/A   Clear
5:55 AM 78.6 °F - 74.5 °F 87% 29.96 in 7.0 mi ESE 3.5 mph - N/A   Clear
6:15 AM 78.1 °F - 73.9 °F 87% 29.96 in 7.0 mi Calm Calm - N/A   Clear
6:35 AM 78.3 °F - 74.3 °F 88% 29.96 in 7.0 mi ESE 3.5 mph - N/A   Scattered Clouds
6:55 AM 78.3 °F - 74.3 °F 88% 29.96 in 7.0 mi East 3.5 mph - N/A   Mostly Cloudy
7:15 AM 79.2 °F - 75.0 °F 87% 29.97 in 5.0 mi East 4.6 mph - N/A   Overcast
7:35 AM 79.7 °F - 75.4 °F 87% 29.97 in 5.0 mi East 4.6 mph - N/A   Haze
7:55 AM 80.6 °F 86.6 °F 76.1 °F 86% 29.97 in 5.0 mi East 5.8 mph - N/A   Haze
8:15 AM 81.7 °F 89.0 °F 76.5 °F 84% 29.98 in 5.0 mi ESE 5.8 mph - N/A   Haze
8:35 AM 82.8 °F 91.3 °F 76.6 °F 82% 29.98 in 7.0 mi SE 8.1 mph - N/A   Scattered Clouds
8:55 AM 84.2 °F 93.4 °F 76.5 °F 77% 29.98 in 7.0 mi SE 11.5 mph - N/A   Scattered Clouds
9:15 AM 84.9 °F 94.5 °F 76.1 °F 75% 29.99 in 7.0 mi SSE 8.1 mph - N/A   Mostly Cloudy
9:35 AM 86.7 °F 95.9 °F 74.8 °F 68% 29.98 in 7.0 mi South 8.1 mph - N/A   Scattered Clouds
9:55 AM 88.2 °F 96.9 °F 73.9 °F 63% 29.99 in 5.0 mi South 9.2 mph - N/A   Haze
10:15 AM 90.3 °F 97.2 °F 71.6 °F 54% 29.98 in 5.0 mi South 11.5 mph - N/A   Haze
10:35 AM 91.4 °F 97.8 °F 71.1 °F 51% 29.99 in 7.0 mi South 9.2 mph - N/A   Clear
10:55 AM 92.5 °F 96.9 °F 68.5 °F 45% 29.99 in 5.0 mi SSE 12.7 mph 17.3 mph N/A   Haze
11:15 AM 93.9 °F 98.0 °F 67.6 °F 42% 29.99 in 7.0 mi SSE 8.1 mph 18.4 mph N/A   Clear
11:35 AM 95.7 °F 99.2 °F 66.7 °F 38% 29.99 in 7.0 mi SSE 11.5 mph - N/A   Clear
11:55 AM 96.6 °F 99.8 °F 65.8 °F 36% 29.99 in 5.0 mi SSE 10.4 mph 18.4 mph N/A   Haze
12:15 PM 96.6 °F 99.8 °F 65.3 °F 36% 29.99 in 7.0 mi South 8.1 mph 18.4 mph N/A   Clear
12:35 PM 97.5 °F 99.7 °F 64.2 °F 33% 29.98 in 7.0 mi South 13.8 mph 18.4 mph N/A   Clear
12:55 PM 98.4 °F 100.7 °F 63.9 °F 32% 29.97 in 7.0 mi SSE 12.7 mph 25.3 mph N/A   Clear
1:15 PM 98.8 °F 101.4 °F 64.6 °F 32% 29.97 in 7.0 mi SSE 15.0 mph 20.7 mph N/A   Clear
1:35 PM 98.6 °F 101.0 °F 63.9 °F 32% 29.97 in 7.0 mi SSE 15.0 mph 20.7 mph N/A   Clear
1:55 PM 100.2 °F 102.1 °F 63.0 °F 29% 29.96 in 7.0 mi SSE 17.3 mph - N/A   Clear
2:15 PM 99.3 °F 101.2 °F 62.8 °F 30% 29.96 in 7.0 mi SE 16.1 mph - N/A   Scattered Clouds
2:35 PM 100.9 °F 103.3 °F 62.8 °F 29% 29.96 in 7.0 mi SE 16.1 mph 23.0 mph N/A   Scattered Clouds
3:15 PM 99.3 °F 102.3 °F 64.9 °F 32% 29.95 in 7.0 mi SE 12.7 mph 23.0 mph N/A   Mostly Cloudy
3:35 PM 100.8 °F 103.6 °F 64.2 °F 30% 29.95 in 7.0 mi SSE 17.3 mph 21.9 mph N/A   Mostly Cloudy
3:55 PM 99.9 °F 102.7 °F 64.4 °F 31% 29.95 in 7.0 mi SSE 17.3 mph 21.9 mph N/A   Scattered Clouds
4:15 PM 99.5 °F 102.0 °F 63.9 °F 31% 29.95 in 7.0 mi SSE 16.1 mph 21.9 mph N/A   Clear
4:35 PM 100.9 °F 103.3 °F 63.5 °F 29% 29.94 in 7.0 mi SSE 16.1 mph 19.6 mph N/A   Scattered Clouds
5:35 PM 99.7 °F 101.8 °F 63.1 °F 30% 29.94 in 7.0 mi SSE 13.8 mph 20.7 mph N/A   Scattered Clouds
5:55 PM 99.3 °F 102.9 °F 65.1 °F 33% 29.94 in 7.0 mi ESE 19.6 mph 25.3 mph N/A   Mostly Cloudy
6:15 PM 96.4 °F 100.0 °F 66.6 °F 37% 29.94 in 10.0 mi SE 23.0 mph - N/A   Scattered Clouds
6:35 PM 96.6 °F 100.9 °F 67.1 °F 38% 29.94 in 10.0 mi SE 19.6 mph 24.2 mph N/A   Clear
6:55 PM 95.2 °F 99.3 °F 67.6 °F 40% 29.95 in 10.0 mi SSE 16.1 mph 24.2 mph N/A   Clear
7:15 PM 94.8 °F 98.7 °F 67.3 °F 40% 29.95 in 10.0 mi SE 19.6 mph - N/A   Clear
7:35 PM 93.9 °F 98.0 °F 67.8 °F 42% 29.95 in 10.0 mi SE 16.1 mph 20.7 mph N/A   Clear
7:55 PM 92.8 °F 97.6 °F 68.4 °F 45% 29.96 in 10.0 mi SE 18.4 mph - N/A   Clear
8:15 PM 91.4 °F 96.8 °F 69.8 °F 49% 29.96 in 10.0 mi SE 17.3 mph - N/A   Clear
8:35 PM 90.1 °F 95.3 °F 69.8 °F 51% 29.97 in 10.0 mi SE 17.3 mph 21.9 mph N/A   Clear
8:55 PM 89.1 °F 94.1 °F 70.2 °F 53% 29.97 in 10.0 mi SSE 15.0 mph - N/A   Clear
9:15 PM 88.0 °F 93.8 °F 71.1 °F 57% 29.98 in 10.0 mi SE 11.5 mph - N/A   Clear
9:35 PM 87.3 °F 93.6 °F 71.6 °F 60% 29.99 in 10.0 mi SE 13.8 mph - N/A   Clear
9:55 PM 86.7 °F 92.9 °F 72.0 °F 61% 29.99 in 10.0 mi SE 10.4 mph - N/A   Clear
10:15 PM 85.8 °F 92.2 °F 72.3 °F 64% 30.00 in 10.0 mi SE 12.7 mph 17.3 mph N/A   Clear
10:35 PM 85.3 °F 91.5 °F 72.5 °F 65% 30.01 in 10.0 mi SE 12.7 mph 17.3 mph N/A   Clear
10:55 PM 84.7 °F 91.0 °F 72.5 °F 67% 30.01 in 10.0 mi SE 12.7 mph - N/A   Clear
11:15 PM 84.2 °F 90.3 °F 72.7 °F 68% 30.02 in 10.0 mi SE 11.5 mph - N/A   Clear
11:35 PM 83.8 °F 90.4 °F 73.4 °F 71% 30.02 in 10.0 mi SE 9.2 mph - N/A   Clear
11:55 PM 83.8 °F 90.8 °F 73.8 °F 72% 30.02 in 10.0 mi SSE 12.7 mph 18.4 mph N/A   Scattered Clouds